CW0508 Weather Reports


time (UTC)temp
C
wind
direction
speed
KPH
gust
KPH
rain 1hr
cm
rain 24hr
cm
rain mn
cm
humidity
%
barometer
mb
20260504141156 15 189 6.4 25.7 0.00 0.00 0.00 45 1012.3
20260504140156 14 267 6.4 29.0 0.00 0.00 0.00 47 1012.2
20260504120156 7 256 0.0 4.8 0.00 0.00 0.00 68 1013.2
20260504110156 3 262 0.0 0.0 0.00 0.00 0.00 87 1013.0
20260504070145 3 262 0.0 0.0 0.00 0.00 0.00 80 1012.8
20260504060145 3 262 0.0 0.0 0.00 0.00 0.00 79 1012.7
20260504050145 2 264 0.0 0.0 0.00 0.00 0.00 80 1012.9
20260504044145 2 262 0.0 0.0 0.00 0.00 0.00 80 1012.9
20260504043145 1 261 0.0 0.0 0.00 0.00 0.00 80 1012.9
20260504042145 1 263 0.0 0.0 0.00 0.00 0.00 80 1012.9
20260504041145 1 262 0.0 0.0 0.00 0.00 0.00 80 1012.9
20260504040145 1 260 0.0 0.0 0.00 0.00 0.00 80 1012.8
20260504035145 1 262 0.0 0.0 0.00 0.00 0.00 79 1012.8
20260504033145 1 261 0.0 0.0 0.00 0.00 0.00 78 1012.6
20260504031145 1 262 0.0 0.0 0.00 0.00 0.00 77 1012.6
20260504025145 2 261 0.0 0.0 0.00 0.00 0.00 75 1012.6
20260504024145 2 260 0.0 0.0 0.00 0.00 0.00 75 1012.6
20260504023145 2 262 0.0 0.0 0.00 0.00 0.00 74 1012.5
20260504022145 2 261 0.0 0.0 0.00 0.00 0.00 74 1012.5
20260503214142 11 359 4.8 20.9 0.00 0.00 0.00 39 1010.2
20260503212142 11 326 1.6 22.5 0.00 0.00 0.00 39 1010.1
20260503210142 10 273 17.7 20.9 0.00 0.00 0.00 41 1010.1
20260503205142 11 12 11.3 19.3 0.00 0.00 0.00 41 1010.1
20260503204142 11 206 3.2 19.3 0.00 0.00 0.00 40 1010.2
20260503201142 11 301 0.0 22.5 0.00 0.00 0.00 44 1010.0
20260503200142 10 354 0.0 29.0 0.00 0.00 0.00 42 1009.9
20260503195141 10 312 6.4 29.0 0.00 0.00 0.00 42 1010.2
20260503194141 11 331 6.4 20.9 0.00 0.00 0.00 43 1010.0
20260503191142 10 288 1.6 32.2 0.00 0.00 0.00 42 1010.0
20260503190142 11 350 3.2 24.1 0.00 0.00 0.00 44 1009.9
20260503185142 11 334 8.0 24.1 0.00 0.00 0.00 42 1009.9
20260503184142 11 268 11.3 27.4 0.00 0.00 0.00 42 1009.7
20260503183141 11 343 16.1 27.4 0.00 0.00 0.00 43 1009.8
20260503181142 11 248 3.2 29.0 0.00 0.00 0.00 42 1009.7
20260503180142 11 249 11.3 24.1 0.00 0.00 0.00 43 1009.6
20260503175142 10 247 14.5 29.0 0.00 0.00 0.00 45 1009.6
20260503174142 10 4 8.0 29.0 0.00 0.00 0.00 45 1009.9
20260503173142 10 317 12.9 24.1 0.00 0.00 0.00 44 1010.0
20260503172142 10 272 16.1 25.7 0.00 0.00 0.00 45 1009.7
20260503171142 10 324 8.0 25.7 0.00 0.00 0.00 46 1009.8
20260503170142 10 199 8.0 25.7 0.00 0.00 0.00 44 1009.6
20260503160141 11 359 1.6 29.0 0.00 0.08 0.00 44 1009.7
20260503150142 9 45 8.0 22.5 0.00 0.25 0.00 52 1009.8